QPF
0.00 0.00 0.00 0.00 0.00 0.00 0.00 0.00 0.00 0.00 0.00 0.00 0.01 0.01 0.01 0.00 0.00 0.00 0.00 0.00 0.00 0.00 0.00 0.00 0.00 0.00 0.00 0.00 0.00 0.00 0.00 0.01 0.01 0.00 0.00 0.00 0.00 0.00 0.00 0.00 0.00 0.00 0.01 0.01 0.01 0.01 0.02 0.01 0.01
0.00 0.00 0.00 0.00 0.00 0.00 0.00 0.00 0.00 0.00 0.00 0.00 0.00 0.01 0.00 0.01 0.00 0.00 0.00 0.00 0.00 0.00 0.00 0.00 0.00 0.00 0.00 0.00 0.00 0.00 0.00 0.00 0.00 0.00 0.00 0.00 0.00 0.00 0.00 0.00 0.00 0.00 0.01 0.01 0.01 0.01 0.01 0.01 0.01
0.00 0.00 0.00 0.00 0.00 0.00 0.00 0.00 0.00 0.00 0.00 0.00 0.01 0.01 0.00 0.01 0.00 0.00 0.00 0.00 0.00 0.00 0.00 0.00 0.00 0.00 0.00 0.00 0.00 0.00 0.00 0.00 0.00 0.00 0.00 0.00 0.00 0.00 0.00 0.00 0.00 0.00 0.01 0.01 0.01 0.01 0.01 0.01 0.01
0.00 0.00 0.00 0.00 0.00 0.00 0.00 0.00 0.00 0.00 0.00 0.00 0.01 0.01 0.01 0.01 0.01 0.01 0.00 0.00 0.00 0.00 0.00 0.00 0.00 0.00 0.00 0.00 0.00 0.00 0.00 0.00 0.00 0.00 0.00 0.00 0.00 0.00 0.00 0.00 0.00 0.00 0.01 0.01 0.01 0.01 0.01 0.01 0.00
0.00 0.00 0.00 0.00 0.00 0.00 0.00 0.00 0.00 0.00 0.00 0.00 0.00 0.01 0.01 0.01 0.01 0.00 0.00 0.00 0.00 0.00 0.00 0.00 0.00 0.00 0.00 0.00 0.00 0.00 0.00 0.00 0.00 0.00 0.00 0.00 0.00 0.00 0.00 0.00 0.00 0.00 0.01 0.01 0.01 0.01 0.01 0.00 0.00
0.00 0.00 0.00 0.00 0.00 0.00 0.00 0.00 0.00 0.00 0.00 0.00 0.00 0.00 0.01 0.01 0.01 0.02 0.01 0.01 0.00 0.00 0.00 0.00 0.00 0.00 0.00 0.00 0.00 0.00 0.00 0.00 0.00 0.00 0.00 0.00 0.00 0.00 0.00 0.01 0.01 0.01 0.01 0.01 0.01 0.01 0.01 0.01 0.01
0.00 0.00 0.00 0.00 0.00 0.00 0.00 0.00 0.00 0.00 0.00 0.00 0.00 0.00 0.00 0.01 0.02 0.04 0.03 0.01 0.01 0.00 0.00 0.00 0.00 0.00 0.00 0.00 0.00 0.00 0.00 0.00 0.00 0.00 0.00 0.00 0.00 0.00 0.00 0.01 0.01 0.01 0.01 0.01 0.01 0.01 0.01 0.01 0.01
0.00 0.00 0.00 0.00 0.00 0.00 0.00 0.00 0.00 0.00 0.00 0.00 0.00 0.00 0.01 0.01 0.01 0.01 0.01 0.01 0.01 0.00 0.00 0.01 0.01 0.01 0.01 0.01 0.01 0.01 0.01 0.00 0.00 0.00 0.01 0.00 0.00 0.00 0.01 0.01 0.01 0.01 0.02 0.02 0.02 0.01 0.01 0.01 0.01
0.00 0.00 0.00 0.00 0.00 0.00 0.00 0.00 0.00 0.00 0.00 0.00 0.00 0.00 0.00 0.00 0.01 0.01 0.01 0.01 0.01 0.00 0.01 0.01 0.01 0.02 0.02 0.03 0.02 0.02 0.01 0.01 0.01 0.01 0.01 0.01 0.01 0.01 0.01 0.01 0.01 0.01 0.02 0.02 0.03 0.02 0.01 0.01 0.01
0.00 0.00 0.00 0.00 0.00 0.00 0.00 0.00 0.00 0.00 0.00 0.00 0.00 0.00 0.01 0.01 0.02 0.02 0.01 0.01 0.01 0.00 0.00 0.01 0.01 0.02 0.02 0.05 0.07 0.07 0.05 0.03 0.02 0.03 0.03 0.02 0.03 0.03 0.02 0.02 0.01 0.02 0.02 0.03 0.03 0.03 0.02 0.01 0.01
0.00 0.00 0.00 0.00 0.00 0.00 0.00 0.00 0.00 0.00 0.00 0.00 0.00 0.00 0.00 0.00 0.01 0.01 0.01 0.01 0.01 0.01 0.01 0.01 0.01 0.01 0.02 0.05 0.08 0.08 0.07 0.07 0.06 0.05 0.05 0.05 0.05 0.05 0.04 0.04 0.03 0.03 0.03 0.03 0.04 0.03 0.02 0.02 0.01
0.00 0.00 0.00 0.00 0.00 0.00 0.00 0.00 0.00 0.00 0.00 0.00 0.00 0.00 0.00 0.01 0.01 0.00 0.00 0.00 0.00 0.01 0.01 0.02 0.02 0.02 0.04 0.05 0.06 0.06 0.07 0.08 0.08 0.07 0.06 0.06 0.05 0.05 0.05 0.06 0.05 0.06 0.05 0.06 0.05 0.04 0.03 0.03 0.02
0.00 0.00 0.00 0.00 0.00 0.00 0.00 0.00 0.00 0.00 0.00 0.00 0.00 0.00 0.00 0.01 0.01 0.01 0.01 0.01 0.01 0.01 0.01 0.02 0.02 0.02 0.02 0.04 0.06 0.07 0.07 0.09 0.13 0.14 0.11 0.10 0.08 0.08 0.08 0.08 0.08 0.08 0.08 0.08 0.06 0.05 0.05 0.05 0.03
0.00 0.00 0.00 0.00 0.00 0.00 0.00 0.00 0.00 0.00 0.00 0.00 0.00 0.00 0.00 0.01 0.01 0.01 0.02 0.02 0.02 0.01 0.02 0.02 0.02 0.03 0.04 0.05 0.07 0.08 0.09 0.09 0.11 0.13 0.16 0.16 0.15 0.11 0.10 0.11 0.10 0.10 0.11 0.10 0.07 0.05 0.06 0.06 0.04
0.00 0.00 0.00 0.00 0.00 0.00 0.00 0.00 0.00 0.00 0.00 0.00 0.00 0.00 0.00 0.01 0.01 0.01 0.02 0.02 0.02 0.02 0.02 0.04 0.04 0.04 0.06 0.08 0.09 0.10 0.11 0.12 0.14 0.13 0.13 0.16 0.17 0.18 0.14 0.10 0.08 0.09 0.11 0.12 0.10 0.08 0.09 0.07 0.05
0.00 0.00 0.00 0.00 0.00 0.00 0.00 0.00 0.00 0.00 0.00 0.00 0.00 0.00 0.00 0.00 0.00 0.01 0.01 0.02 0.02 0.03 0.03 0.04 0.03 0.04 0.05 0.08 0.10 0.14 0.15 0.17 0.16 0.14 0.13 0.13 0.12 0.13 0.14 0.12 0.11 0.10 0.10 0.11 0.11 0.10 0.09 0.07 0.07
0.00 0.00 0.00 0.00 0.00 0.00 0.00 0.00 0.00 0.00 0.00 0.00 0.00 0.00 0.00 0.00 0.01 0.01 0.01 0.02 0.03 0.04 0.04 0.04 0.03 0.04 0.05 0.07 0.09 0.11 0.14 0.18 0.18 0.16 0.17 0.18 0.16 0.14 0.13 0.11 0.11 0.11 0.12 0.11 0.11 0.10 0.10 0.10 0.09
0.00 0.00 0.00 0.00 0.00 0.00 0.00 0.00 0.01 0.01 0.00 0.00 0.00 0.00 0.00 0.01 0.01 0.01 0.01 0.02 0.03 0.03 0.03 0.03 0.03 0.04 0.05 0.06 0.09 0.11 0.15 0.18 0.18 0.19 0.22 0.23 0.19 0.16 0.16 0.15 0.13 0.14 0.16 0.15 0.15 0.15 0.15 0.15 0.13
0.00 0.00 0.00 0.00 0.00 0.00 0.00 0.00 0.01 0.01 0.01 0.00 0.00 0.00 0.01 0.01 0.01 0.01 0.01 0.02 0.03 0.03 0.03 0.03 0.04 0.04 0.04 0.04 0.05 0.07 0.10 0.15 0.18 0.19 0.20 0.20 0.17 0.14 0.14 0.17 0.15 0.13 0.16 0.20 0.21 0.21 0.21 0.19 0.18
0.00 0.00 0.00 0.00 0.00 0.00 0.00 0.01 0.01 0.01 0.01 0.00 0.00 0.01 0.01 0.01 0.01 0.01 0.01 0.01 0.02 0.03 0.03 0.03 0.04 0.05 0.05 0.05 0.06 0.07 0.09 0.12 0.15 0.15 0.13 0.13 0.12 0.12 0.12 0.14 0.18 0.17 0.15 0.18 0.21 0.23 0.23 0.21 0.20
0.00 0.00 0.00 0.00 0.00 0.00 0.00 0.00 0.01 0.01 0.01 0.01 0.00 0.00 0.00 0.01 0.01 0.01 0.01 0.02 0.03 0.04 0.04 0.04 0.04 0.06 0.06 0.05 0.05 0.07 0.07 0.07 0.09 0.08 0.09 0.10 0.10 0.10 0.08 0.08 0.11 0.17 0.18 0.17 0.19 0.21 0.23 0.23 0.22
0.00 0.00 0.00 0.00 0.00 0.00 0.00 0.00 0.00 0.00 0.00 0.00 0.00 0.00 0.00 0.00 0.01 0.00 0.01 0.01 0.03 0.06 0.07 0.08 0.07 0.06 0.05 0.04 0.05 0.07 0.07 0.08 0.08 0.07 0.06 0.06 0.08 0.10 0.10 0.10 0.10 0.15 0.20 0.21 0.22 0.23 0.21 0.22 0.23
0.00 0.00 0.00 0.00 0.00 0.00 0.00 0.00 0.00 0.00 0.00 0.00 0.00 0.00 0.00 0.00 0.00 0.00 0.01 0.01 0.02 0.03 0.04 0.05 0.06 0.05 0.04 0.03 0.04 0.06 0.08 0.10 0.10 0.10 0.07 0.05 0.05 0.07 0.09 0.12 0.16 0.19 0.22 0.24 0.26 0.31 0.31 0.28 0.28
0.00 0.00 0.00 0.00 0.00 0.00 0.00 0.00 0.01 0.00 0.00 0.00 0.00 0.00 0.00 0.00 0.00 0.00 0.00 0.00 0.01 0.02 0.03 0.03 0.03 0.03 0.03 0.03 0.03 0.04 0.08 0.12 0.11 0.10 0.08 0.06 0.04 0.05 0.06 0.08 0.13 0.18 0.20 0.20 0.24 0.30 0.33 0.35 0.34
0.00 0.00 0.00 0.00 0.00 0.00 0.00 0.00 0.01 0.00 0.00 0.00 0.00 0.01 0.00 0.00 0.00 0.00 0.00 0.00 0.00 0.02 0.02 0.02 0.02 0.01 0.01 0.01 0.01 0.02 0.04 0.06 0.07 0.09 0.09 0.07 0.05 0.05 0.05 0.07 0.09 0.12 0.15 0.18 0.20 0.24 0.29 0.30 0.31
0.00 0.00 0.00 0.00 0.00 0.00 0.00 0.01 0.00 0.00 0.00 0.00 0.01 0.01 0.01 0.00 0.01 0.01 0.01 0.00 0.00 0.01 0.01 0.01 0.01 0.01 0.01 0.01 0.01 0.02 0.03 0.03 0.05 0.07 0.07 0.06 0.05 0.05 0.05 0.06 0.08 0.08 0.11 0.12 0.12 0.14 0.18 0.22 0.23
0.00 0.00 0.00 0.00 0.00 0.01 0.00 0.00 0.00 0.01 0.00 0.00 0.00 0.01 0.01 0.01 0.00 0.00 0.00 0.00 0.00 0.00 0.01 0.01 0.01 0.01 0.01 0.01 0.01 0.02 0.03 0.03 0.04 0.05 0.06 0.06 0.06 0.06 0.05 0.05 0.07 0.07 0.07 0.07 0.07 0.09 0.13 0.18 0.21
0.00 0.00 0.00 0.01 0.01 0.01 0.01 0.00 0.00 0.01 0.00 0.00 0.01 0.01 0.00 0.00 0.00 0.00 0.00 0.01 0.01 0.01 0.01 0.01 0.01 0.01 0.01 0.02 0.01 0.01 0.02 0.02 0.03 0.04 0.06 0.07 0.07 0.06 0.06 0.05 0.05 0.05 0.06 0.07 0.06 0.06 0.07 0.10 0.14
0.00 0.00 0.00 0.01 0.01 0.01 0.01 0.00 0.00 0.01 0.00 0.00 0.00 0.00 0.01 0.01 0.01 0.00 0.00 0.00 0.01 0.01 0.01 0.01 0.01 0.01 0.01 0.02 0.01 0.01 0.02 0.02 0.03 0.03 0.05 0.07 0.07 0.06 0.06 0.05 0.04 0.05 0.05 0.05 0.06 0.07 0.07 0.07 0.09
0.00 0.00 0.00 0.02 0.02 0.01 0.01 0.01 0.00 0.00 0.00 0.00 0.00 0.00 0.01 0.01 0.01 0.01 0.01 0.00 0.00 0.00 0.00 0.01 0.01 0.01 0.01 0.01 0.02 0.02 0.01 0.02 0.03 0.04 0.03 0.04 0.04 0.05 0.05 0.04 0.03 0.04 0.03 0.03 0.03 0.05 0.05 0.06 0.06
MSLP
1011.62 1011.82 1012.09 1012.39 1012.63 1012.79 1012.83 1012.76 1012.61 1012.41 1012.19 1011.97 1011.76 1011.53 1011.28 1010.98 1010.65 1010.32 1010.04 1009.88 1009.89 1010.10 1010.52 1011.10 1011.78 1012.47 1013.09 1013.59 1013.95 1014.19 1014.36 1014.55 1014.80 1015.16 1015.63 1016.16 1016.70 1017.19 1017.57 1017.82 1017.96 1018.02 1018.06 1018.15 1018.30 1018.54 1018.82 1019.12 1019.36
1011.52 1011.79 1012.12 1012.43 1012.66 1012.77 1012.75 1012.60 1012.35 1012.05 1011.73 1011.41 1011.11 1010.82 1010.53 1010.24 1009.94 1009.68 1009.50 1009.45 1009.58 1009.91 1010.43 1011.09 1011.82 1012.55 1013.19 1013.70 1014.07 1014.32 1014.53 1014.74 1015.03 1015.40 1015.87 1016.38 1016.88 1017.32 1017.64 1017.84 1017.93 1017.99 1018.05 1018.17 1018.37 1018.66 1019.00 1019.31 1019.56
1011.53 1011.85 1012.19 1012.49 1012.69 1012.74 1012.65 1012.42 1012.08 1011.69 1011.29 1010.89 1010.53 1010.20 1009.89 1009.60 1009.34 1009.15 1009.06 1009.11 1009.35 1009.77 1010.38 1011.11 1011.89 1012.65 1013.32 1013.86 1014.26 1014.55 1014.79 1015.03 1015.33 1015.71 1016.15 1016.61 1017.05 1017.41 1017.67 1017.82 1017.90 1017.95 1018.05 1018.21 1018.47 1018.81 1019.17 1019.50 1019.73
1011.67 1012.00 1012.33 1012.59 1012.73 1012.73 1012.56 1012.26 1011.86 1011.41 1010.94 1010.50 1010.10 1009.74 1009.43 1009.15 1008.94 1008.80 1008.79 1008.92 1009.24 1009.75 1010.41 1011.19 1012.01 1012.80 1013.49 1014.06 1014.49 1014.82 1015.10 1015.37 1015.68 1016.04 1016.44 1016.84 1017.21 1017.51 1017.71 1017.83 1017.91 1017.99 1018.13 1018.35 1018.65 1019.02 1019.38 1019.69 1019.89
1011.90 1012.22 1012.51 1012.72 1012.80 1012.73 1012.51 1012.15 1011.70 1011.21 1010.72 1010.26 1009.85 1009.49 1009.19 1008.94 1008.76 1008.68 1008.73 1008.93 1009.30 1009.85 1010.55 1011.35 1012.18 1012.98 1013.68 1014.27 1014.72 1015.08 1015.39 1015.67 1015.98 1016.32 1016.68 1017.03 1017.35 1017.60 1017.77 1017.89 1017.99 1018.12 1018.31 1018.58 1018.92 1019.29 1019.64 1019.91 1020.05
1012.17 1012.46 1012.70 1012.85 1012.86 1012.73 1012.46 1012.07 1011.60 1011.10 1010.61 1010.16 1009.76 1009.42 1009.14 1008.93 1008.80 1008.77 1008.87 1009.11 1009.52 1010.08 1010.78 1011.56 1012.38 1013.15 1013.84 1014.42 1014.89 1015.26 1015.58 1015.87 1016.17 1016.50 1016.83 1017.14 1017.42 1017.65 1017.83 1017.98 1018.13 1018.32 1018.56 1018.88 1019.24 1019.60 1019.91 1020.11 1020.18
1012.41 1012.66 1012.84 1012.92 1012.87 1012.69 1012.38 1011.97 1011.51 1011.02 1010.55 1010.12 1009.75 1009.45 1009.22 1009.06 1008.99 1009.00 1009.14 1009.41 1009.83 1010.38 1011.05 1011.79 1012.55 1013.27 1013.92 1014.47 1014.92 1015.29 1015.61 1015.91 1016.21 1016.52 1016.84 1017.14 1017.42 1017.65 1017.86 1018.06 1018.27 1018.52 1018.82 1019.17 1019.54 1019.87 1020.12 1020.25 1020.24
1012.55 1012.74 1012.86 1012.88 1012.79 1012.57 1012.24 1011.83 1011.37 1010.90 1010.46 1010.07 1009.75 1009.50 1009.32 1009.22 1009.21 1009.28 1009.46 1009.75 1010.16 1010.69 1011.30 1011.97 1012.65 1013.29 1013.87 1014.37 1014.79 1015.15 1015.47 1015.77 1016.08 1016.40 1016.72 1017.03 1017.31 1017.58 1017.83 1018.07 1018.34 1018.65 1018.99 1019.36 1019.72 1020.02 1020.22 1020.28 1020.20
1012.56 1012.70 1012.76 1012.73 1012.60 1012.35 1012.01 1011.60 1011.16 1010.71 1010.30 1009.95 1009.68 1009.48 1009.36 1009.33 1009.38 1009.51 1009.72 1010.04 1010.44 1010.92 1011.47 1012.05 1012.63 1013.19 1013.69 1014.13 1014.51 1014.85 1015.17 1015.49 1015.81 1016.15 1016.48 1016.81 1017.12 1017.42 1017.70 1017.99 1018.30 1018.64 1019.01 1019.38 1019.72 1019.99 1020.15 1020.16 1020.05
1012.44 1012.53 1012.55 1012.48 1012.32 1012.05 1011.71 1011.31 1010.88 1010.46 1010.07 1009.75 1009.52 1009.37 1009.31 1009.34 1009.44 1009.63 1009.88 1010.21 1010.60 1011.04 1011.52 1012.01 1012.50 1012.96 1013.38 1013.77 1014.12 1014.45 1014.78 1015.12 1015.48 1015.84 1016.20 1016.55 1016.88 1017.19 1017.50 1017.80 1018.12 1018.47 1018.84 1019.20 1019.53 1019.78 1019.92 1019.92 1019.80
1012.24 1012.29 1012.27 1012.18 1011.99 1011.72 1011.39 1010.99 1010.58 1010.17 1009.81 1009.51 1009.31 1009.20 1009.19 1009.26 1009.42 1009.64 1009.93 1010.26 1010.62 1011.02 1011.43 1011.84 1012.25 1012.63 1013.00 1013.34 1013.68 1014.02 1014.38 1014.75 1015.14 1015.54 1015.93 1016.29 1016.63 1016.94 1017.24 1017.52 1017.83 1018.16 1018.51 1018.85 1019.17 1019.42 1019.57 1019.60 1019.53
1012.04 1012.05 1012.00 1011.88 1011.69 1011.42 1011.09 1010.72 1010.32 1009.93 1009.59 1009.31 1009.13 1009.05 1009.07 1009.18 1009.36 1009.60 1009.89 1010.21 1010.55 1010.90 1011.25 1011.60 1011.93 1012.26 1012.59 1012.92 1013.27 1013.64 1014.03 1014.45 1014.88 1015.31 1015.72 1016.09 1016.42 1016.71 1016.96 1017.21 1017.47 1017.76 1018.07 1018.40 1018.72 1018.99 1019.19 1019.29 1019.31
1011.89 1011.86 1011.78 1011.65 1011.45 1011.20 1010.89 1010.54 1010.17 1009.81 1009.50 1009.25 1009.09 1009.03 1009.07 1009.18 1009.37 1009.61 1009.88 1010.16 1010.45 1010.74 1011.03 1011.32 1011.61 1011.91 1012.23 1012.57 1012.94 1013.35 1013.79 1014.26 1014.73 1015.19 1015.61 1015.98 1016.28 1016.52 1016.72 1016.90 1017.10 1017.33 1017.61 1017.93 1018.26 1018.59 1018.87 1019.08 1019.22
1011.83 1011.76 1011.66 1011.51 1011.32 1011.08 1010.81 1010.50 1010.19 1009.88 1009.62 1009.42 1009.29 1009.26 1009.30 1009.41 1009.57 1009.77 1009.98 1010.20 1010.42 1010.64 1010.86 1011.09 1011.35 1011.63 1011.96 1012.32 1012.73 1013.19 1013.68 1014.19 1014.70 1015.17 1015.59 1015.93 1016.19 1016.38 1016.52 1016.63 1016.77 1016.95 1017.20 1017.52 1017.89 1018.29 1018.68 1019.02 1019.31
1011.86 1011.75 1011.62 1011.46 1011.28 1011.07 1010.85 1010.62 1010.38 1010.16 1009.98 1009.85 1009.78 1009.78 1009.83 1009.92 1010.04 1010.16 1010.29 1010.41 1010.53 1010.66 1010.80 1010.98 1011.20 1011.47 1011.81 1012.20 1012.65 1013.15 1013.67 1014.21 1014.73 1015.20 1015.60 1015.91 1016.13 1016.26 1016.34 1016.41 1016.49 1016.64 1016.88 1017.22 1017.65 1018.13 1018.64 1019.12 1019.56
1011.94 1011.79 1011.62 1011.45 1011.29 1011.13 1010.98 1010.84 1010.72 1010.62 1010.56 1010.53 1010.55 1010.59 1010.66 1010.73 1010.79 1010.83 1010.85 1010.85 1010.85 1010.86 1010.91 1011.02 1011.20 1011.45 1011.78 1012.19 1012.66 1013.18 1013.72 1014.25 1014.76 1015.21 1015.57 1015.85 1016.02 1016.12 1016.16 1016.20 1016.26 1016.41 1016.66 1017.03 1017.52 1018.09 1018.71 1019.33 1019.90
1012.01 1011.81 1011.62 1011.45 1011.31 1011.22 1011.16 1011.14 1011.15 1011.20 1011.28 1011.38 1011.50 1011.62 1011.72 1011.78 1011.79 1011.74 1011.64 1011.51 1011.38 1011.26 1011.20 1011.22 1011.34 1011.55 1011.87 1012.27 1012.73 1013.24 1013.75 1014.26 1014.73 1015.13 1015.45 1015.69 1015.83 1015.90 1015.93 1015.96 1016.04 1016.20 1016.48 1016.89 1017.44 1018.09 1018.81 1019.54 1020.23
1012.02 1011.78 1011.57 1011.42 1011.32 1011.30 1011.34 1011.44 1011.60 1011.80 1012.03 1012.28 1012.52 1012.73 1012.88 1012.96 1012.93 1012.81 1012.60 1012.34 1012.07 1011.83 1011.65 1011.56 1011.60 1011.76 1012.03 1012.39 1012.82 1013.28 1013.75 1014.20 1014.60 1014.94 1015.21 1015.40 1015.52 1015.58 1015.62 1015.67 1015.77 1015.97 1016.29 1016.75 1017.35 1018.06 1018.85 1019.66 1020.43
1011.93 1011.68 1011.48 1011.36 1011.32 1011.37 1011.51 1011.72 1012.00 1012.35 1012.72 1013.11 1013.47 1013.78 1014.00 1014.11 1014.07 1013.90 1013.62 1013.25 1012.86 1012.50 1012.20 1012.02 1011.96 1012.05 1012.25 1012.55 1012.91 1013.30 1013.69 1014.06 1014.38 1014.64 1014.84 1014.99 1015.08 1015.15 1015.20 1015.28 1015.43 1015.67 1016.03 1016.52 1017.15 1017.89 1018.72 1019.57 1020.40
1011.77 1011.53 1011.37 1011.30 1011.32 1011.44 1011.66 1011.96 1012.34 1012.78 1013.26 1013.76 1014.23 1014.63 1014.93 1015.08 1015.07 1014.89 1014.57 1014.14 1013.67 1013.21 1012.81 1012.53 1012.39 1012.38 1012.51 1012.72 1013.00 1013.31 1013.61 1013.88 1014.10 1014.28 1014.41 1014.51 1014.58 1014.64 1014.72 1014.83 1015.00 1015.27 1015.66 1016.16 1016.80 1017.55 1018.37 1019.24 1020.10
1011.56 1011.39 1011.30 1011.30 1011.39 1011.57 1011.84 1012.18 1012.60 1013.08 1013.60 1014.16 1014.69 1015.17 1015.55 1015.78 1015.82 1015.68 1015.37 1014.93 1014.42 1013.90 1013.43 1013.07 1012.84 1012.76 1012.80 1012.93 1013.13 1013.34 1013.55 1013.72 1013.86 1013.95 1014.01 1014.05 1014.09 1014.13 1014.21 1014.33 1014.52 1014.80 1015.18 1015.67 1016.28 1017.00 1017.80 1018.65 1019.51
1011.39 1011.32 1011.32 1011.42 1011.58 1011.80 1012.08 1012.40 1012.79 1013.24 1013.74 1014.29 1014.85 1015.38 1015.83 1016.14 1016.27 1016.21 1015.96 1015.56 1015.06 1014.53 1014.03 1013.61 1013.32 1013.16 1013.13 1013.19 1013.31 1013.45 1013.57 1013.67 1013.72 1013.74 1013.73 1013.71 1013.69 1013.70 1013.75 1013.85 1014.02 1014.28 1014.62 1015.07 1015.63 1016.29 1017.04 1017.86 1018.71
1011.31 1011.36 1011.49 1011.68 1011.90 1012.14 1012.39 1012.65 1012.94 1013.30 1013.72 1014.21 1014.75 1015.30 1015.80 1016.20 1016.45 1016.50 1016.36 1016.04 1015.60 1015.10 1014.59 1014.15 1013.82 1013.61 1013.52 1013.52 1013.58 1013.66 1013.73 1013.77 1013.76 1013.71 1013.63 1013.55 1013.47 1013.42 1013.42 1013.47 1013.58 1013.78 1014.06 1014.44 1014.92 1015.51 1016.21 1016.98 1017.82
1011.36 1011.54 1011.80 1012.08 1012.35 1012.58 1012.76 1012.92 1013.08 1013.29 1013.58 1013.97 1014.46 1015.00 1015.56 1016.05 1016.42 1016.62 1016.61 1016.42 1016.07 1015.63 1015.15 1014.71 1014.35 1014.10 1013.97 1013.93 1013.96 1014.00 1014.04 1014.04 1013.99 1013.89 1013.76 1013.61 1013.46 1013.34 1013.25 1013.22 1013.26 1013.37 1013.57 1013.86 1014.26 1014.78 1015.41 1016.14 1016.96
1011.53 1011.84 1012.21 1012.56 1012.85 1013.05 1013.15 1013.18 1013.19 1013.24 1013.38 1013.66 1014.08 1014.61 1015.21 1015.80 1016.31 1016.65 1016.80 1016.75 1016.51 1016.15 1015.72 1015.29 1014.92 1014.65 1014.49 1014.42 1014.43 1014.46 1014.49 1014.47 1014.40 1014.28 1014.10 1013.89 1013.67 1013.46 1013.29 1013.16 1013.11 1013.12 1013.23 1013.43 1013.75 1014.19 1014.76 1015.46 1016.25
1011.79 1012.20 1012.63 1013.03 1013.32 1013.48 1013.49 1013.40 1013.26 1013.16 1013.16 1013.34 1013.70 1014.23 1014.88 1015.57 1016.20 1016.70 1017.00 1017.09 1016.96 1016.68 1016.30 1015.89 1015.52 1015.23 1015.05 1014.97 1014.97 1015.00 1015.03 1015.02 1014.95 1014.80 1014.60 1014.34 1014.06 1013.78 1013.52 1013.31 1013.16 1013.08 1013.11 1013.23 1013.48 1013.86 1014.38 1015.03 1015.80
1012.08 1012.53 1012.99 1013.39 1013.66 1013.76 1013.70 1013.51 1013.26 1013.05 1012.96 1013.08 1013.41 1013.95 1014.65 1015.43 1016.18 1016.81 1017.25 1017.46 1017.44 1017.23 1016.90 1016.51 1016.14 1015.84 1015.64 1015.55 1015.54 1015.57 1015.62 1015.62 1015.56 1015.42 1015.20 1014.92 1014.59 1014.26 1013.93 1013.65 1013.43 1013.29 1013.25 1013.32 1013.51 1013.84 1014.31 1014.91 1015.64
1012.35 1012.76 1013.20 1013.56 1013.79 1013.85 1013.73 1013.48 1013.18 1012.92 1012.80 1012.90 1013.24 1013.82 1014.58 1015.44 1016.29 1017.02 1017.56 1017.87 1017.93 1017.79 1017.49 1017.12 1016.75 1016.44 1016.23 1016.12 1016.11 1016.15 1016.20 1016.22 1016.18 1016.05 1015.84 1015.55 1015.21 1014.85 1014.50 1014.18 1013.92 1013.74 1013.66 1013.70 1013.86 1014.15 1014.57 1015.13 1015.81
1012.53 1012.87 1013.22 1013.52 1013.69 1013.70 1013.56 1013.31 1013.02 1012.78 1012.70 1012.84 1013.23 1013.85 1014.67 1015.59 1016.50 1017.31 1017.92 1018.28 1018.40 1018.30 1018.03 1017.68 1017.31 1017.00 1016.78 1016.67 1016.65 1016.69 1016.76 1016.80 1016.77 1016.67 1016.48 1016.21 1015.89 1015.54 1015.19 1014.88 1014.62 1014.44 1014.35 1014.37 1014.51 1014.77 1015.16 1015.66 1016.27
1012.63 1012.84 1013.08 1013.28 1013.39 1013.38 1013.25 1013.04 1012.82 1012.67 1012.67 1012.89 1013.35 1014.04 1014.90 1015.85 1016.80 1017.62 1018.26 1018.65 1018.80 1018.73 1018.50 1018.17 1017.82 1017.52 1017.31 1017.20 1017.18 1017.22 1017.29 1017.34 1017.34 1017.27 1017.12 1016.89 1016.60 1016.30 1015.99 1015.71 1015.48 1015.32 1015.25 1015.28 1015.41 1015.64 1015.99 1016.43 1016.96
Thickness
5778 5785 5790 5788 5778 5772 5774 5781 5785 5787 5794 5806 5810 5808 5805 5804 5800 5794 5817 5826 5824 5819 5809 5799 5796 5793 5792 5790 5788 5786 5784 5781 5777 5775 5772 5769 5767 5765 5763 5761 5760 5759 5757 5756 5754 5753 5752 5750 5749
5780 5784 5782 5779 5767 5763 5772 5781 5780 5785 5796 5807 5810 5808 5805 5808 5816 5814 5817 5820 5819 5815 5806 5799 5793 5791 5789 5787 5786 5784 5781 5778 5775 5772 5770 5767 5765 5763 5761 5760 5758 5756 5755 5754 5752 5751 5749 5748 5746
5777 5780 5775 5770 5764 5769 5773 5778 5781 5791 5802 5803 5804 5810 5808 5807 5813 5814 5818 5817 5815 5810 5805 5796 5790 5787 5785 5784 5782 5780 5778 5776 5773 5770 5767 5765 5763 5760 5759 5757 5756 5754 5753 5751 5750 5748 5746 5745 5743
5773 5770 5768 5761 5761 5773 5775 5778 5783 5787 5797 5803 5803 5801 5809 5813 5816 5818 5817 5815 5811 5807 5801 5792 5786 5784 5782 5780 5779 5777 5775 5773 5770 5767 5765 5763 5760 5758 5757 5755 5753 5752 5750 5748 5747 5745 5743 5742 5740
5770 5765 5754 5753 5762 5772 5775 5779 5782 5783 5789 5797 5800 5797 5800 5810 5817 5817 5813 5811 5807 5804 5798 5788 5782 5780 5778 5776 5775 5773 5771 5769 5767 5764 5762 5760 5758 5756 5754 5752 5750 5749 5747 5746 5744 5743 5741 5739 5738
5758 5759 5749 5750 5759 5766 5772 5779 5781 5783 5790 5798 5798 5795 5795 5806 5808 5809 5809 5806 5805 5800 5794 5783 5777 5775 5773 5771 5770 5768 5766 5764 5762 5761 5758 5756 5754 5753 5751 5749 5748 5746 5744 5743 5742 5740 5738 5737 5735
5753 5750 5750 5754 5755 5758 5767 5778 5778 5780 5786 5795 5802 5794 5792 5797 5802 5805 5803 5802 5799 5796 5790 5781 5776 5771 5768 5766 5765 5763 5761 5760 5757 5756 5754 5752 5751 5749 5747 5746 5744 5743 5741 5740 5739 5737 5735 5734 5733
5758 5751 5745 5749 5749 5754 5768 5775 5780 5780 5784 5798 5803 5793 5788 5791 5798 5798 5797 5796 5793 5790 5786 5780 5776 5772 5767 5763 5760 5758 5756 5755 5753 5751 5749 5748 5747 5745 5744 5743 5741 5740 5738 5737 5736 5734 5733 5731 5730
5750 5741 5740 5745 5747 5754 5767 5769 5778 5786 5787 5791 5798 5798 5798 5796 5795 5790 5788 5787 5785 5782 5780 5777 5774 5770 5768 5764 5758 5754 5751 5750 5748 5746 5745 5744 5745 5744 5742 5742 5738 5737 5735 5734 5733 5732 5730 5729 5727
5741 5735 5741 5748 5753 5756 5763 5766 5771 5779 5780 5781 5785 5788 5791 5791 5788 5785 5782 5779 5777 5775 5775 5773 5771 5767 5765 5762 5756 5753 5750 5748 5747 5747 5743 5743 5745 5744 5743 5740 5736 5734 5732 5731 5730 5729 5727 5727 5729
5739 5737 5742 5747 5753 5755 5758 5763 5770 5771 5768 5774 5777 5778 5782 5783 5783 5782 5779 5777 5774 5771 5769 5769 5766 5763 5762 5758 5755 5752 5750 5747 5745 5744 5741 5741 5741 5741 5740 5737 5733 5731 5731 5731 5729 5727 5729 5730 5731
5734 5737 5741 5746 5751 5752 5754 5759 5762 5764 5765 5775 5779 5779 5778 5776 5777 5777 5775 5772 5770 5767 5763 5763 5760 5757 5756 5754 5751 5748 5746 5743 5742 5740 5738 5738 5737 5737 5737 5734 5734 5733 5732 5732 5731 5730 5730 5729 5728
5729 5734 5740 5745 5749 5751 5752 5753 5754 5756 5765 5771 5773 5772 5771 5771 5770 5770 5770 5767 5764 5759 5756 5755 5753 5751 5748 5746 5744 5743 5741 5740 5737 5735 5734 5734 5734 5733 5732 5731 5730 5731 5731 5730 5729 5728 5727 5726 5725
5733 5735 5738 5744 5747 5747 5746 5749 5750 5749 5760 5762 5762 5762 5762 5761 5761 5759 5757 5755 5754 5751 5748 5749 5746 5744 5742 5739 5737 5737 5736 5734 5734 5732 5730 5729 5729 5728 5727 5726 5725 5726 5727 5726 5725 5725 5723 5722 5722
5732 5729 5734 5740 5744 5747 5746 5737 5739 5745 5753 5752 5752 5751 5751 5750 5749 5746 5745 5744 5744 5742 5741 5740 5739 5737 5735 5734 5732 5731 5730 5729 5728 5728 5725 5724 5723 5722 5721 5722 5721 5721 5722 5721 5719 5720 5719 5718 5717
5728 5726 5725 5733 5740 5743 5740 5728 5732 5741 5744 5742 5743 5742 5739 5737 5737 5736 5736 5735 5735 5734 5733 5732 5732 5730 5728 5728 5726 5725 5724 5722 5720 5719 5718 5717 5716 5715 5715 5716 5716 5716 5716 5716 5715 5715 5715 5714 5713
5721 5723 5725 5725 5736 5739 5739 5728 5727 5736 5736 5733 5733 5733 5731 5727 5725 5725 5726 5726 5726 5725 5725 5724 5724 5722 5721 5720 5718 5717 5716 5715 5713 5712 5711 5708 5707 5707 5708 5711 5711 5709 5710 5711 5711 5711 5710 5707 5706
5715 5722 5720 5722 5729 5733 5730 5722 5722 5727 5728 5726 5725 5724 5721 5717 5713 5714 5716 5717 5716 5716 5716 5715 5715 5713 5713 5712 5711 5710 5708 5706 5706 5705 5703 5702 5700 5700 5702 5703 5703 5704 5705 5705 5706 5705 5704 5702 5700
5718 5718 5717 5719 5727 5727 5721 5716 5714 5717 5720 5718 5716 5716 5712 5707 5706 5707 5706 5707 5706 5706 5705 5705 5704 5704 5704 5704 5703 5703 5701 5700 5700 5699 5696 5695 5695 5696 5697 5696 5698 5699 5700 5700 5700 5699 5696 5695 5694
5713 5712 5714 5716 5721 5721 5715 5710 5710 5711 5711 5711 5709 5706 5703 5700 5698 5697 5696 5696 5696 5695 5694 5695 5694 5694 5694 5695 5696 5695 5695 5694 5693 5691 5688 5687 5687 5689 5691 5691 5693 5694 5694 5694 5693 5693 5691 5690 5689
5709 5714 5716 5713 5716 5719 5714 5706 5706 5706 5706 5703 5701 5699 5695 5692 5689 5686 5685 5685 5685 5683 5683 5683 5683 5684 5685 5686 5687 5687 5687 5686 5684 5682 5681 5680 5680 5681 5683 5684 5686 5687 5688 5688 5688 5687 5686 5684 5683
5707 5718 5717 5713 5712 5714 5714 5708 5710 5707 5701 5697 5694 5691 5688 5684 5680 5677 5675 5673 5672 5672 5673 5672 5673 5674 5675 5677 5679 5678 5678 5677 5674 5673 5673 5672 5672 5673 5675 5676 5678 5680 5681 5682 5682 5683 5683 5681 5678
5714 5720 5717 5716 5715 5713 5715 5712 5716 5709 5700 5696 5690 5686 5682 5677 5673 5668 5665 5663 5662 5662 5662 5662 5663 5664 5665 5667 5668 5668 5668 5667 5666 5665 5664 5664 5664 5665 5667 5668 5670 5672 5674 5674 5675 5676 5677 5678 5676
5715 5714 5713 5715 5717 5701 5712 5707 5710 5711 5707 5700 5690 5681 5675 5669 5664 5660 5657 5655 5653 5652 5652 5652 5652 5652 5654 5656 5658 5658 5658 5657 5656 5655 5655 5656 5657 5657 5658 5659 5660 5663 5665 5665 5667 5668 5670 5671 5671
5710 5703 5694 5693 5696 5702 5711 5703 5707 5709 5707 5702 5689 5676 5668 5662 5657 5652 5649 5647 5643 5642 5641 5641 5642 5642 5643 5645 5646 5647 5647 5647 5646 5646 5646 5647 5647 5647 5647 5649 5650 5652 5653 5655 5657 5659 5661 5662 5663
5706 5707 5694 5684 5690 5702 5700 5698 5703 5699 5697 5694 5685 5672 5662 5655 5650 5645 5640 5637 5634 5632 5631 5632 5632 5632 5633 5634 5634 5635 5636 5636 5636 5635 5635 5636 5636 5636 5637 5639 5640 5641 5642 5645 5647 5649 5651 5652 5654
5703 5706 5715 5701 5699 5693 5700 5699 5691 5686 5682 5679 5671 5662 5654 5647 5641 5636 5631 5628 5625 5623 5621 5621 5622 5623 5623 5623 5624 5624 5624 5625 5624 5624 5624 5625 5625 5626 5627 5628 5630 5631 5633 5635 5637 5638 5639 5641 5643
5711 5708 5699 5694 5680 5678 5690 5693 5696 5683 5675 5670 5663 5656 5647 5640 5633 5628 5623 5619 5617 5615 5613 5612 5612 5613 5612 5613 5613 5613 5613 5614 5614 5614 5614 5614 5614 5616 5617 5618 5620 5621 5623 5626 5627 5628 5629 5630 5631
5696 5696 5697 5698 5695 5681 5677 5688 5700 5694 5685 5673 5663 5654 5644 5635 5627 5620 5615 5612 5609 5607 5605 5604 5603 5603 5602 5602 5602 5602 5602 5602 5603 5603 5603 5603 5604 5606 5608 5608 5609 5611 5612 5615 5616 5618 5620 5620 5620
5700 5698 5694 5681 5681 5684 5682 5684 5690 5690 5686 5675 5661 5648 5636 5627 5619 5613 5609 5605 5602 5599 5597 5595 5594 5594 5593 5592 5592 5592 5592 5592 5593 5593 5593 5594 5595 5596 5597 5598 5599 5601 5602 5604 5606 5608 5609 5610 5610